"Pseudo-MPEC" for CALUYK2

Created 2024 May 16 13:22:08 UT using Find_Orb

Click here for an explanation of pseudo-MPECs

 
 Astrometry: 
     CALUYK2*1C2024 05 15.20092612 30 32.980+19 13 46.02   ~5F5b 19.39GVNEOCPG96
     CALUYK2 1C2024 05 15.21227212 30 56.387+19 15 34.16   ~5F5b 19.99GVNEOCPG96
     CALUYK2 1C2024 05 15.21795112 31 08.281+19 16 29.03   ~5F5b 20.12GVNEOCPG96
     CALUYK2 KC2024 05 15.29379812 33 47.077+19 28 22.15   ~5F7b 19.70GVNEOCPI52
     CALUYK2 KC2024 05 15.29476512 33 49.122+19 28 31.15   ~5F7b 19.75GVNEOCPI52
     CALUYK2 KC2024 05 15.29573412 33 51.188+19 28 40.26   ~5F7b 19.89GVNEOCPI52
     CALUYK2 KC2024 05 15.29670712 33 53.248+19 28 49.19   ~5F7b 19.68GVNEOCPI52
     CALUYK2 KB2024 05 15,Qww/-FYqbu8RK;#K`bbW],m$A3@vSLN*#7kIqb2FKoAv0^92;P.J57
     CALUYK2 KB2024 05 15U9vu5O=Y%U$Og;AYQ7!MG9@3Tq+=LD9!3B#QU]`YAstrometry2@J57
     CALUYK2 KB2024 05 15'FB`Q3;X4TyGcpRvP?wcaUnpl.OXNPredacted;_NLE%_;8soktXM45
     CALUYK2 KC2024 05 15.95788812 59 34.327+21 09 57.38   ~5FNM 19.6 GVNEOCPJ95
     CALUYK2 KB2024 05 15aL^7VWh?rwhhivrGKH,yt,Y3GK`ZOW`gny6[q4#:W2%KZe$.q7AbM45
     CALUYK2 KC2024 05 15.96059412 59 40.649+21 10 21.29   ~5FNM 19.3 GVNEOCPJ95
     CALUYK2 KC2024 05 15.96344512 59 47.258+21 10 45.73   ~5FNM 19.7 GVNEOCPJ95
     CALUYK2 KC2024 05 15.96668112 59 54.787+21 11 14.53   ~5FNM 19.6 GVNEOCPJ95
     CALUYK2 KC2024 05 16[5$;d5!+]=*tRbVp?0(D[09J[QE9iru--v8kmC?yy'/oF?wET9/nH21
     CALUYK2 KC2024 05 16=jED8B30q@rG3cnV\m/cW$/PU._H=Se.R[,DWt/N:'u'Di76Fim$H21
     CALUYK2 KC2024 05 16RxYa][$jfv[M@8G)f;0aC.*Z4A'Wh_clickdf?K#T)GUJw6Q)x!oH21
     CALUYK2 KC2024 05 16921\t;qc6x@%]*EV/#1m$@q0Ht9Fuc9aNP\CGEZy?96$8Gg;2Z@RH21
     CALUYK2 KB2024 05 16QBbSphereVyk?formSmCi6j4JC-cY1Zyql3kD?gar]qLOj?\]KM`Q06
     CALUYK2 KB2024 05 169x)F;2qweiiRZhqH)j+p4jiJ'+u.kh,ti6Us3@bWrwEDE(h*(^sLQ06
     CALUYK2 KB2024 05 16MCSX?aIaHwP$g+wU%`2R71v\9d@uH9GO]TaV;0=explanation=aQ06

Station data:
(G96) Mt. Lemmon Survey  (N32.442729 W110.788720)  US/Arizona.  Observer E.
   J. Christensen. 1.5-m reflector + 10K CCD.
(H21) Astronomical Research Observatory, Westfield  (N39.483054 W87.968270)
   US/Illinois.  Observer R. Holmes. Measurers S. Foglia, L. Buzzi, T.
   Linder, R. Holmes. 0.76-m f/3.0 astrograph + CCD0.81-m f/4.0 astrograph +
   CCD0.61-m f/4.5 astrograph + CCD0.40-m f/5.32 astrograph + CCD.
(I52) Steward Observatory, Mt. Lemmon Station  (N32.442570 W110.788920)
   US/Arizona.  Observers T. A. Pruyne, B. M. Africano, E. J. Christensen, G.
   A. Farneth, D. C. Fuls, A. R. Gibbs, A. D. Grauer, H. Gröller, J. A.
   Johnson, R. A. Kowalski, S. M. Larson, G. J. Leonard, D. Rankin, R. L.
   Seaman, F. C. Shelly, K. W. Wierzchoś. 1.0-m prime focus + CCD.
(J57) Centro Astronómico Alto Turia, Valencia  (N39.950156 W1.109110)  Spain.
    Observer A. Fornas. Measurers E. Arce, V. Mas, G. Fornas. 0.43-m f/6.8
   reflector + CCD.
(J95) Great Shefford  (N51.474969 W1.447003)  UK/England.  Observer P.
   Birtwhistle. 0.41-m f/6.3 Schmidt-Cassegrain + CCD.
(M45) Starhopper Observatory, Sfantu Gheorghe  (N45.865582 E25.768900)
   Romania.  Observer F. Ursache. 0.41-m f/7.5 reflector + CMO.
(Q06) Tarui Observatory, Tarui  (N35.394791 E136.495470)  Japan.

Orbital elements:  CALUYK2
   Perihelion 2024 May 8.21994 +/- 0.007 TT =  5:16:43 (JD 2460438.71994)
Epoch 2024 May 16.0 TT = JDT 2460446.5   Earth MOID: 0.0125      AutoNEOCP
M   2.60451254 +/- 0.010            (J2000 ecliptic)
n   0.33476788 +/- 0.00108          Peri.  357.05875 +/- 0.007
a   2.05418802 +/- 0.0044           Node   228.21454 +/- 0.0038
e   0.5027342 +/- 0.00105           Incl.    5.68847 +/- 0.007
P   2.94                   H 25.99  G  0.15   U  8.2
q 1.02147742 +/- 2.45e-5    Q 3.08689862 +/- 0.00878
From 22 observations 2024 May 15-16 (31.4 hr); mean residual 0".34
Residuals in arcseconds: 
240515 G96  .30-  .25+    240515 J57  .40+  .31+    240516 H21  .21+  .20-    
240515 G96  .93-  .55-    240515 M45  .50-  .36+    240516 H21  .00   .00     
240515 G96  .98+  .01-    240515 J95  .06-  .19-    240516 H21  .03+  .09-    
240515 I52  .15+  .16-    240515 M45  .15-  .35-    240516 Q06  .02+  .51-    
240515 I52  .06+  .11-    240515 J95  .28+  .15+    240516 Q06  .02-  .45+    
240515 I52  .20+  .03+    240515 J95  .13-  .21-    240516 Q06  .16+  .48-    
240515 I52  .12+  .04-    240515 J95  .29-  .49+    
240515 J57  .71+  .04-    240516 H21  .29+  .26-    

Ephemerides (geocentric):
Date (UTC) HH   RA             Dec           delta  r     elong  mag " sig PA
---- --------  ------------   ------------  ------ ------ -----  --- --------
2024 05 16 13  13 23 52.344   +22 34 27.96  .02469 1.0264 127.5 19.9 .306 147
2024 05 16 14  13 25 38.834   +22 39 50.37  .02467 1.0264 127.7 19.9 .325 142
2024 05 16 15  13 27 25.648   +22 45 08.80  .02465 1.0265 127.8 19.9 .346 137
2024 05 16 16  13 29 12.774   +22 50 23.15  .02463 1.0265 128.0 19.9 .371 132
2024 05 16 17  13 31 00.200   +22 55 33.36  .02461 1.0266 128.1 19.9 .399 128
2024 05 16 18  13 32 47.914   +23 00 39.34  .02459 1.0266 128.3 19.9 .430 124
2024 05 16 19  13 34 35.904   +23 05 41.01  .02458 1.0267 128.5 19.9 .464 121
2024 05 16 20  13 36 24.156   +23 10 38.31  .02457 1.0267 128.6 19.9 .500 118
2024 05 16 21  13 38 12.660   +23 15 31.16  .02456 1.0268 128.8 19.9 .539 116
2024 05 16 22  13 40 01.402   +23 20 19.49  .02454 1.0268 128.9 19.9 .580 113
2024 05 16 23  13 41 50.368   +23 25 03.23  .02454 1.0269 129.1 19.9 .623 111
2024 05 17 00  13 43 39.547   +23 29 42.32  .02453 1.0269 129.2 19.9 .668 110
2024 05 17 01  13 45 28.923   +23 34 16.68  .02452 1.0270 129.4 19.8 .715 108
2024 05 17 02  13 47 18.485   +23 38 46.27  .02452 1.0271 129.5 19.8 .764 107
2024 05 17 03  13 49 08.218   +23 43 11.02  .02451 1.0271 129.6 19.8 .814 105
2024 05 17 04  13 50 58.109   +23 47 30.87  .02451 1.0272 129.8 19.8 .866 104
2024 05 17 05  13 52 48.144   +23 51 45.77  .02451 1.0272 129.9 19.8 .920 103
2024 05 17 06  13 54 38.308   +23 55 55.66  .02451 1.0273 130.1 19.8 .976 102
2024 05 17 07  13 56 28.589   +24 00 00.50  .02451 1.0273 130.2 19.8 1.03 102
2024 05 17 08  13 58 18.971   +24 04 00.24  .02451 1.0274 130.3 19.8 1.09 101
2024 05 17 09  14 00 09.440   +24 07 54.83  .02452 1.0274 130.5 19.8 1.15 100
2024 05 17 10  14 01 59.983   +24 11 44.24  .02452 1.0275 130.6 19.8 1.21 100
2024 05 17 11  14 03 50.584   +24 15 28.42  .02453 1.0275 130.7 19.8 1.27  99
2024 05 17 12  14 05 41.230   +24 19 07.33  .02454 1.0276 130.8 19.8 1.34  99
2024 05 17 13  14 07 31.905   +24 22 40.95  .02455 1.0276 131.0 19.8 1.40  98
2024 05 17 14  14 09 22.596   +24 26 09.24  .02456 1.0277 131.1 19.8 1.47  98
2024 05 17 15  14 11 13.288   +24 29 32.17  .02457 1.0278 131.2 19.8 1.54  97
2024 05 17 16  14 13 03.966   +24 32 49.73  .02459 1.0278 131.3 19.8 1.61  97
2024 05 17 17  14 14 54.617   +24 36 01.87  .02460 1.0279 131.5 19.8 1.68  97
2024 05 17 18  14 16 45.225   +24 39 08.60  .02462 1.0279 131.6 19.8 1.75  96
2024 05 17 19  14 18 35.776   +24 42 09.88  .02463 1.0280 131.7 19.8 1.82  96
2024 05 17 20  14 20 26.256   +24 45 05.72  .02465 1.0280 131.8 19.8 1.89  96
2024 05 17 21  14 22 16.650   +24 47 56.08  .02467 1.0281 131.9 19.8 1.96  96
2024 05 17 22  14 24 06.945   +24 50 40.97  .02470 1.0281 132.0 19.8 2.04  96
2024 05 17 23  14 25 57.126   +24 53 20.39  .02472 1.0282 132.1 19.8 2.12  96
2024 05 18 00  14 27 47.178   +24 55 54.32  .02474 1.0283 132.2 19.8 2.19  95
2024 05 18 01  14 29 37.089   +24 58 22.77  .02477 1.0283 132.3 19.8 2.27  95
2024 05 18 02  14 31 26.844   +25 00 45.74  .02480 1.0284 132.4 19.8 2.35  95
2024 05 18 03  14 33 16.429   +25 03 03.25  .02482 1.0284 132.5 19.8 2.43  95
2024 05 18 04  14 35 05.831   +25 05 15.28  .02485 1.0285 132.6 19.8 2.51  95
2024 05 18 05  14 36 55.036   +25 07 21.87  .02488 1.0285 132.7 19.8 2.59  95
2024 05 18 06  14 38 44.030   +25 09 23.01  .02492 1.0286 132.8 19.8 2.67  95
2024 05 18 07  14 40 32.802   +25 11 18.74  .02495 1.0287 132.9 19.8 2.75  95
2024 05 18 08  14 42 21.337   +25 13 09.06  .02498 1.0287 133.0 19.8 2.83  95
2024 05 18 09  14 44 09.623   +25 14 54.00  .02502 1.0288 133.0 19.8 2.91  95
2024 05 18 10  14 45 57.646   +25 16 33.58  .02506 1.0288 133.1 19.8 3.00  95
2024 05 18 11  14 47 45.396   +25 18 07.83  .02510 1.0289 133.2 19.8 3.08  95
2024 05 18 12  14 49 32.859   +25 19 36.77  .02514 1.0290 133.3 19.8 3.16  95